Simultaneous Nadir Overpasses (SNOs) Predictions

Prediction of SNOs between GOES-16 and NOAA-20 Satellite Orbit:

Table of predicted SNOs for the next 14.0 days since TLE Epoch: 9/21/2018
Index Date Time (GOES-16) GOES-16 Lat,Lon NOAA-20 Lat,Lon Distance(km) Time Diff (sec)
1 09/22/2018 18:26:16 0.00, -75.20 -0.11, -75.79 67.17 80
2 09/23/2018 18:10:12 0.00, -75.20 0.91, -71.26 449.85 80
3 09/25/2018 06:31:59 -0.00, -75.22 0.31, -76.52 148.86 80
4 09/26/2018 06:10:35 -0.00, -75.23 -0.71, -71.99 368.37 80
5 09/27/2018 18:32:31 0.00, -75.23 -0.49, -77.30 235.52 80
6 09/28/2018 18:16:26 0.00, -75.24 0.53, -72.77 281.93 80
7 09/30/2018 06:38:15 -0.00, -75.27 0.63, -78.04 316.25 80
8 10/01/2018 06:16:50 -0.00, -75.28 -0.39, -73.51 201.17 80
9 10/02/2018 18:38:46 0.00, -75.28 -0.80, -78.81 402.52 80
10 10/03/2018 18:22:42 0.00, -75.29 0.22, -74.28 115.14 80
11 10/05/2018 06:44:30 0.00, -75.32 0.95, -79.56 482.31 80




NCC Satellite Simultaneous Nadir Overpasses (SNOs) Prediction Service
